Temp: 6.6°C   Baro: 1015.3mb
  Wind: 2.0mph   Dir: W (262°)
  Rain: 2.4mm (0.0mm/hr)
  Solar: 0W/m2  Hum: 82%
 
Cotswold Observatory Historical Data
 
Daily Summary for February 18, 2019 Units:  Metric    English   Both
Next Day »
Daily Weekly Monthly Yearly Custom
  Current: High: Low: Average:
Temperature: 6.6 °C 10.8 °C 6.6 °C 9.1 °C
Dew Point: 3.6 °C 8.0 °C 3.6 °C 6.7 °C
Humidity: 81% 90% 72% 85%
Wind Speed: 1.4km/h 24.1km/h 1.4km/h 9.9km/h
Wind Gust: 4.8km/h 30.6km/h - -
Wind directionWNW - - West
Pressure: 1015.1 hPa 1015.1 hPa 1012.8 hPa -
Precipitation: 2.3 mm      
Historical Graphs
 
 
Tabular Data for February 18, 2019
Time Temperature Dew Point Pressure Wind direction Wind Speed Wind Gust Humidity Rainfall Rate (Hourly) solar
00:04 9.3 °C 7.4 °C 1014.1 hPa West 9.7 km/h 14.5 km/h 88% 0.0 mm 0.00 W/m2
00:09 9.3 °C 7.6 °C 1014.1 hPa WSW 20.9 km/h 20.9 km/h 89% 0.0 mm 0.00 W/m2
00:14 9.3 °C 7.6 °C 1014.1 hPa SSW 14.3 km/h 14.5 km/h 89% 0.0 mm 0.00 W/m2
00:19 9.3 °C 7.6 °C 1014.1 hPa SW 4.7 km/h 14.5 km/h 89% 0.0 mm 0.00 W/m2
00:24 9.3 °C 7.6 °C 1014.1 hPa SW 11.1 km/h 16.1 km/h 89% 0.0 mm 0.00 W/m2
00:29 9.3 °C 7.6 °C 1013.8 hPa SSW 1.4 km/h 9.7 km/h 89% 0.0 mm 0.00 W/m2
00:34 9.3 °C 7.6 °C 1013.8 hPa SW 3.2 km/h 11.3 km/h 89% 0.0 mm 0.00 W/m2
00:39 9.3 °C 7.6 °C 1013.8 hPa West 4.7 km/h 17.7 km/h 89% 0.0 mm 0.00 W/m2
00:44 9.3 °C 7.6 °C 1013.8 hPa WSW 3.2 km/h 14.5 km/h 89% 0.0 mm 0.00 W/m2
00:49 9.3 °C 7.6 °C 1013.8 hPa SW 17.7 km/h 17.7 km/h 89% 0.0 mm 0.00 W/m2
00:54 9.3 °C 7.7 °C 1013.8 hPa WSW 7.9 km/h 19.3 km/h 90% 0.0 mm 0.00 W/m2
00:59 9.3 °C 7.7 °C 1013.8 hPa SW 24.1 km/h 24.1 km/h 90% 0.0 mm 0.00 W/m2
01:04 9.3 °C 7.7 °C 1013.8 hPa WSW 7.9 km/h 14.5 km/h 90% 0.0 mm 0.00 W/m2
01:09 9.3 °C 7.7 °C 1013.8 hPa SW 16.3 km/h 22.5 km/h 90% 0.0 mm 0.00 W/m2
01:14 9.3 °C 7.6 °C 1013.8 hPa SW 6.4 km/h 19.3 km/h 89% 0.0 mm 0.00 W/m2
01:19 9.3 °C 7.6 °C 1013.8 hPa SW 11.1 km/h 17.7 km/h 89% 0.0 mm 0.00 W/m2
01:24 9.3 °C 7.6 °C 1013.8 hPa SW 24.1 km/h 24.1 km/h 89% 0.0 mm 0.00 W/m2
01:29 9.3 °C 7.6 °C 1013.8 hPa SW 7.9 km/h 17.7 km/h 89% 0.0 mm 0.00 W/m2
01:34 9.3 °C 7.6 °C 1013.8 hPa WSW 17.7 km/h 19.3 km/h 89% 0.0 mm 0.00 W/m2
01:39 9.3 °C 7.7 °C 1013.4 hPa WSW 13.0 km/h 16.1 km/h 90% 0.0 mm 0.00 W/m2
01:44 9.3 °C 7.6 °C 1013.4 hPa SSW 7.9 km/h 11.3 km/h 89% 0.0 mm 0.00 W/m2
01:49 9.3 °C 7.6 °C 1013.4 hPa WSW 13.0 km/h 14.5 km/h 89% 0.0 mm 0.00 W/m2
01:54 9.3 °C 7.7 °C 1013.4 hPa SSW 14.3 km/h 14.5 km/h 90% 0.0 mm 0.00 W/m2
01:59 9.3 °C 7.7 °C 1013.4 hPa SW 14.3 km/h 17.7 km/h 90% 0.0 mm 0.00 W/m2
02:04 9.3 °C 7.6 °C 1013.4 hPa SW 13.0 km/h 14.5 km/h 89% 0.0 mm 0.00 W/m2
02:09 9.4 °C 7.8 °C 1013.4 hPa SW 6.4 km/h 20.9 km/h 90% 0.0 mm 0.00 W/m2
02:14 9.4 °C 7.8 °C 1013.4 hPa SSW 7.9 km/h 20.9 km/h 90% 0.0 mm 0.00 W/m2
02:19 9.4 °C 7.7 °C 1013.4 hPa WSW 24.1 km/h 24.1 km/h 89% 0.0 mm 0.00 W/m2
02:24 9.5 °C 7.8 °C 1013.4 hPa SW 11.1 km/h 27.4 km/h 89% 0.0 mm 0.00 W/m2
02:29 9.5 °C 7.8 °C 1013.4 hPa WSW 11.1 km/h 14.5 km/h 89% 0.0 mm 0.00 W/m2
02:34 9.4 °C 7.7 °C 1013.4 hPa SW 19.5 km/h 27.4 km/h 89% 0.0 mm 0.00 W/m2
02:39 9.4 °C 7.7 °C 1013.4 hPa SW 16.3 km/h 19.3 km/h 89% 0.0 mm 0.00 W/m2
02:44 9.4 °C 7.7 °C 1013.4 hPa West 1.4 km/h 27.4 km/h 89% 0.0 mm 0.00 W/m2
02:49 9.4 °C 7.7 °C 1013.4 hPa SW 13.0 km/h 17.7 km/h 89% 0.0 mm 0.00 W/m2
02:54 9.4 °C 7.7 °C 1013.4 hPa WSW 4.7 km/h 25.7 km/h 89% 0.0 mm 0.00 W/m2
02:59 9.4 °C 7.7 °C 1013.4 hPa SSW 11.1 km/h 14.5 km/h 89% 0.0 mm 0.00 W/m2
03:04 9.5 °C 7.8 °C 1013.4 hPa WSW 4.7 km/h 14.5 km/h 89% 0.0 mm 0.00 W/m2
03:09 9.4 °C 7.7 °C 1013.1 hPa SSW 22.5 km/h 22.5 km/h 89% 0.0 mm 0.00 W/m2
03:14 9.5 °C 7.8 °C 1013.1 hPa WSW 24.1 km/h 24.1 km/h 89% 0.0 mm 0.00 W/m2
03:19 9.4 °C 7.7 °C 1013.1 hPa WSW 13.0 km/h 12.9 km/h 89% 0.0 mm 0.00 W/m2
03:24 9.5 °C 7.8 °C 1013.1 hPa SW 4.7 km/h 16.1 km/h 89% 0.0 mm 0.00 W/m2
03:29 9.5 °C 7.8 °C 1013.1 hPa SW 7.9 km/h 14.5 km/h 89% 0.0 mm 0.00 W/m2
03:34 9.4 °C 7.7 °C 1013.1 hPa South 11.1 km/h 16.1 km/h 89% 0.0 mm 0.00 W/m2
03:39 9.5 °C 7.8 °C 1013.1 hPa WSW 13.0 km/h 17.7 km/h 89% 0.0 mm 0.00 W/m2
03:44 9.5 °C 7.8 °C 1013.1 hPa West 22.5 km/h 22.5 km/h 89% 0.0 mm 0.00 W/m2
03:49 9.5 °C 7.8 °C 1013.1 hPa WSW 16.3 km/h 16.1 km/h 89% 0.0 mm 0.00 W/m2
03:54 9.6 °C 7.9 °C 1012.8 hPa SW 17.7 km/h 19.3 km/h 89% 0.0 mm 0.00 W/m2
03:59 9.6 °C 7.9 °C 1012.8 hPa SW 3.2 km/h 17.7 km/h 89% 0.0 mm 0.00 W/m2
04:04 9.6 °C 7.9 °C 1012.8 hPa SW 7.9 km/h 22.5 km/h 89% 0.0 mm 0.00 W/m2
04:09 9.6 °C 7.7 °C 1012.8 hPa SW 16.3 km/h 24.1 km/h 88% 0.0 mm 0.00 W/m2
04:14 9.7 °C 7.8 °C 1012.8 hPa SSW 13.0 km/h 20.9 km/h 88% 0.0 mm 0.00 W/m2
04:19 9.7 °C 8.0 °C 1012.8 hPa WSW 14.3 km/h 22.5 km/h 89% 0.0 mm 0.00 W/m2
04:24 9.7 °C 7.8 °C 1012.8 hPa SW 17.7 km/h 19.3 km/h 88% 0.0 mm 0.00 W/m2
04:29 9.6 °C 7.7 °C 1012.8 hPa WSW 22.5 km/h 22.5 km/h 88% 0.0 mm 0.00 W/m2
04:34 9.6 °C 7.7 °C 1012.8 hPa SSW 1.4 km/h 19.3 km/h 88% 0.0 mm 0.00 W/m2
04:39 9.5 °C 7.6 °C 1012.8 hPa SW 7.9 km/h 16.1 km/h 88% 0.0 mm 0.00 W/m2
04:44 9.4 °C 7.3 °C 1012.8 hPa SW 24.1 km/h 24.1 km/h 87% 0.0 mm 0.00 W/m2
04:49 9.4 °C 7.2 °C 1012.8 hPa WSW 13.0 km/h 16.1 km/h 86% 0.0 mm 0.00 W/m2
04:54 9.4 °C 7.0 °C 1012.8 hPa WSW 13.0 km/h 22.5 km/h 85% 0.0 mm 0.00 W/m2
04:59 9.4 °C 7.0 °C 1012.8 hPa SSW 7.9 km/h 24.1 km/h 85% 0.0 mm 0.00 W/m2
05:04 9.3 °C 6.7 °C 1012.8 hPa WSW 13.0 km/h 16.1 km/h 84% 0.0 mm 0.00 W/m2
05:09 9.2 °C 6.5 °C 1012.8 hPa WSW 13.0 km/h 16.1 km/h 83% 0.0 mm 0.00 W/m2
05:14 9.2 °C 6.5 °C 1012.8 hPa WSW 7.9 km/h 22.5 km/h 83% 0.0 mm 0.00 W/m2
05:19 9.1 °C 6.4 °C 1012.8 hPa SW 13.0 km/h 16.1 km/h 83% 0.0 mm 0.00 W/m2
05:24 9.1 °C 6.4 °C 1012.8 hPa SW 7.9 km/h 12.9 km/h 83% 0.0 mm 0.00 W/m2
05:29 9.1 °C 6.5 °C 1012.8 hPa SW 6.4 km/h 24.1 km/h 84% 0.0 mm 0.00 W/m2
05:34 9.0 °C 6.4 °C 1012.8 hPa West 11.1 km/h 14.5 km/h 84% 0.0 mm 0.00 W/m2
05:39 8.9 °C 6.3 °C 1013.1 hPa WSW 7.9 km/h 16.1 km/h 84% 0.0 mm 0.00 W/m2
05:44 8.9 °C 6.3 °C 1012.8 hPa West 4.7 km/h 17.7 km/h 84% 0.0 mm 0.00 W/m2
05:49 8.9 °C 6.5 °C 1012.8 hPa SW 4.7 km/h 12.9 km/h 85% 0.0 mm 0.00 W/m2
05:54 8.9 °C 6.5 °C 1012.8 hPa WSW 14.3 km/h 17.7 km/h 85% 0.0 mm 0.00 W/m2
05:59 8.9 °C 6.5 °C 1013.1 hPa SW 4.7 km/h 11.3 km/h 85% 0.0 mm 0.00 W/m2
06:04 8.9 °C 6.5 °C 1013.1 hPa SSW 6.4 km/h 14.5 km/h 85% 0.0 mm 0.00 W/m2
06:09 8.9 °C 6.5 °C 1013.1 hPa SW 11.1 km/h 16.1 km/h 85% 0.0 mm 0.00 W/m2
06:14 8.9 °C 6.5 °C 1013.1 hPa SSW 9.7 km/h 14.5 km/h 85% 0.0 mm 0.00 W/m2
06:19 8.9 °C 6.7 °C 1013.1 hPa WSW 4.7 km/h 12.9 km/h 86% 0.0 mm 0.00 W/m2
06:24 8.9 °C 6.7 °C 1013.1 hPa SW 7.9 km/h 19.3 km/h 86% 0.0 mm 0.00 W/m2
06:29 8.9 °C 6.7 °C 1013.1 hPa SW 6.4 km/h 14.5 km/h 86% 0.0 mm 0.00 W/m2
06:34 9.0 °C 6.8 °C 1013.1 hPa West 14.3 km/h 16.1 km/h 86% 0.0 mm 0.00 W/m2
06:39 9.0 °C 6.8 °C 1013.1 hPa WNW 3.2 km/h 14.5 km/h 86% 0.0 mm 0.00 W/m2
06:44 8.9 °C 6.9 °C 1013.1 hPa SW 9.7 km/h 12.9 km/h 87% 0.0 mm 0.00 W/m2
06:49 9.0 °C 7.0 °C 1012.8 hPa WSW 24.1 km/h 24.1 km/h 87% 0.0 mm 0.00 W/m2
06:54 9.0 °C 7.0 °C 1012.8 hPa WSW 9.7 km/h 22.5 km/h 87% 0.0 mm 0.00 W/m2
06:59 9.1 °C 7.1 °C 1012.8 hPa SW 9.7 km/h 14.5 km/h 87% 0.0 mm 0.00 W/m2
07:04 9.1 °C 7.1 °C 1012.8 hPa SSW 7.9 km/h 17.7 km/h 87% 0.0 mm 0.00 W/m2
07:09 9.2 °C 7.1 °C 1012.8 hPa SW 16.3 km/h 17.7 km/h 87% 0.0 mm 0.00 W/m2
07:14 9.2 °C 7.1 °C 1013.1 hPa SW 19.5 km/h 20.9 km/h 87% 0.0 mm 0.00 W/m2
07:19 9.2 °C 7.1 °C 1013.1 hPa SW 16.3 km/h 20.9 km/h 87% 0.0 mm 0.00 W/m2
07:24 9.2 °C 7.3 °C 1013.1 hPa West 16.3 km/h 17.7 km/h 88% 0.0 mm 0.00 W/m2
07:29 9.2 °C 7.3 °C 1013.1 hPa West 9.7 km/h 16.1 km/h 88% 0.0 mm 0.00 W/m2
07:34 9.2 °C 7.3 °C 1013.1 hPa SSW 11.1 km/h 20.9 km/h 88% 0.0 mm 5.00 W/m2
07:39 9.2 °C 7.3 °C 1013.1 hPa SW 11.1 km/h 12.9 km/h 88% 0.0 mm 7.00 W/m2
07:44 9.2 °C 7.3 °C 1013.1 hPa SW 11.1 km/h 14.5 km/h 88% 0.0 mm 11.00 W/m2
07:49 9.2 °C 7.3 °C 1013.1 hPa SSW 3.2 km/h 12.9 km/h 88% 0.0 mm 12.00 W/m2
07:54 9.2 °C 7.3 °C 1013.1 hPa SSW 7.9 km/h 14.5 km/h 88% 0.0 mm 14.00 W/m2
07:59 9.2 °C 7.3 °C 1013.1 hPa SW 4.7 km/h 12.9 km/h 88% 0.0 mm 19.00 W/m2
08:04 9.2 °C 7.3 °C 1013.4 hPa WNW 3.2 km/h 9.7 km/h 88% 0.0 mm 28.00 W/m2
08:09 9.3 °C 7.4 °C 1013.4 hPa WSW 7.9 km/h 19.3 km/h 88% 0.0 mm 37.00 W/m2
08:14 9.3 °C 7.4 °C 1013.4 hPa West 3.2 km/h 12.9 km/h 88% 0.0 mm 65.00 W/m2
08:19 9.4 °C 7.5 °C 1013.4 hPa WSW 17.7 km/h 17.7 km/h 88% 0.0 mm 74.00 W/m2
08:24 9.4 °C 7.3 °C 1013.4 hPa WSW 4.7 km/h 16.1 km/h 87% 0.0 mm 72.00 W/m2
08:29 9.5 °C 7.4 °C 1013.4 hPa West 11.1 km/h 17.7 km/h 87% 0.0 mm 76.00 W/m2
08:34 9.6 °C 7.5 °C 1013.4 hPa West 3.2 km/h 11.3 km/h 87% 0.0 mm 76.00 W/m2
08:39 9.6 °C 7.5 °C 1013.4 hPa WSW 7.9 km/h 17.7 km/h 87% 0.0 mm 63.00 W/m2
08:44 9.7 °C 7.6 °C 1013.4 hPa SW 3.2 km/h 11.3 km/h 87% 0.0 mm 58.00 W/m2
08:49 9.7 °C 7.6 °C 1013.4 hPa WSW 11.1 km/h 17.7 km/h 87% 0.0 mm 51.00 W/m2
08:54 9.7 °C 7.6 °C 1013.4 hPa SW 7.9 km/h 14.5 km/h 87% 0.0 mm 56.00 W/m2
08:59 9.8 °C 7.7 °C 1013.4 hPa WSW 1.4 km/h 11.3 km/h 87% 0.0 mm 70.00 W/m2
09:04 9.8 °C 7.9 °C 1013.4 hPa WSW 7.9 km/h 17.7 km/h 88% 0.0 mm 83.00 W/m2
09:09 9.8 °C 7.7 °C 1013.4 hPa WSW 16.3 km/h 17.7 km/h 87% 0.0 mm 95.00 W/m2
09:14 9.9 °C 7.8 °C 1013.4 hPa WSW 9.7 km/h 16.1 km/h 87% 0.0 mm 81.00 W/m2
09:19 9.9 °C 7.8 °C 1013.4 hPa West 9.7 km/h 17.7 km/h 87% 0.0 mm 79.00 W/m2
09:24 9.9 °C 7.8 °C 1013.4 hPa WSW 13.0 km/h 17.7 km/h 87% 0.0 mm 86.00 W/m2
09:29 9.9 °C 7.8 °C 1013.4 hPa SW 3.2 km/h 16.1 km/h 87% 0.0 mm 98.00 W/m2
09:34 9.9 °C 7.8 °C 1013.4 hPa WSW 19.5 km/h 19.3 km/h 87% 0.0 mm 107.00 W/m2
09:39 9.9 °C 7.8 °C 1013.4 hPa WSW 13.0 km/h 12.9 km/h 87% 0.0 mm 109.00 W/m2
09:44 9.9 °C 7.8 °C 1013.4 hPa SW 11.1 km/h 20.9 km/h 87% 0.0 mm 107.00 W/m2
09:49 10.1 °C 8.0 °C 1013.4 hPa WSW 6.4 km/h 17.7 km/h 87% 0.0 mm 128.00 W/m2
09:54 10.1 °C 7.9 °C 1013.4 hPa SW 24.1 km/h 24.1 km/h 86% 0.0 mm 123.00 W/m2
09:59 10.1 °C 7.9 °C 1013.4 hPa WSW 3.2 km/h 16.1 km/h 86% 0.0 mm 130.00 W/m2
10:04 10.2 °C 8.0 °C 1013.4 hPa West 9.7 km/h 14.5 km/h 86% 0.0 mm 107.00 W/m2
10:09 10.2 °C 8.0 °C 1013.4 hPa SW 7.9 km/h 14.5 km/h 86% 0.0 mm 102.00 W/m2
10:14 10.2 °C 8.0 °C 1013.4 hPa WSW 17.7 km/h 19.3 km/h 86% 0.0 mm 111.00 W/m2
10:19 10.2 °C 8.0 °C 1013.4 hPa SW 9.7 km/h 17.7 km/h 86% 0.0 mm 116.00 W/m2
10:24 10.2 °C 8.0 °C 1013.4 hPa West 6.4 km/h 14.5 km/h 86% 0.0 mm 111.00 W/m2
10:29 10.2 °C 8.0 °C 1013.4 hPa SW 4.7 km/h 11.3 km/h 86% 0.0 mm 111.00 W/m2
10:34 10.2 °C 7.8 °C 1013.4 hPa WSW 6.4 km/h 16.1 km/h 85% 0.0 mm 109.00 W/m2
10:39 10.2 °C 7.8 °C 1013.4 hPa SW 6.4 km/h 17.7 km/h 85% 0.0 mm 120.00 W/m2
10:44 10.3 °C 7.9 °C 1013.4 hPa SW 20.9 km/h 20.9 km/h 85% 0.0 mm 114.00 W/m2
10:49 10.3 °C 7.9 °C 1013.4 hPa WSW 6.4 km/h 17.7 km/h 85% 0.0 mm 121.00 W/m2
10:54 10.3 °C 7.9 °C 1013.4 hPa WSW 7.9 km/h 17.7 km/h 85% 0.0 mm 125.00 W/m2
10:59 10.3 °C 7.9 °C 1013.4 hPa SW 7.9 km/h 20.9 km/h 85% 0.0 mm 116.00 W/m2
11:04 10.4 °C 7.8 °C 1013.4 hPa SW 9.7 km/h 17.7 km/h 84% 0.0 mm 118.00 W/m2
11:09 10.4 °C 7.8 °C 1013.4 hPa SW 17.7 km/h 19.3 km/h 84% 0.0 mm 125.00 W/m2
11:14 10.4 °C 7.8 °C 1013.4 hPa SW 6.4 km/h 11.3 km/h 84% 0.0 mm 128.00 W/m2
11:19 10.4 °C 7.6 °C 1013.4 hPa WNW 16.3 km/h 16.1 km/h 83% 0.0 mm 135.00 W/m2
11:24 10.5 °C 7.6 °C 1013.4 hPa West 14.3 km/h 17.7 km/h 82% 0.0 mm 141.00 W/m2
11:29 10.5 °C 7.6 °C 1013.4 hPa WSW 7.9 km/h 14.5 km/h 82% 0.0 mm 156.00 W/m2
11:34 10.6 °C 7.7 °C 1013.4 hPa SW 3.2 km/h 12.9 km/h 82% 0.0 mm 142.00 W/m2
11:39 10.6 °C 7.5 °C 1013.4 hPa WNW 13.0 km/h 17.7 km/h 81% 0.0 mm 149.00 W/m2
11:44 10.7 °C 7.6 °C 1013.4 hPa West 11.1 km/h 16.1 km/h 81% 0.0 mm 167.00 W/m2
11:49 10.7 °C 7.6 °C 1013.4 hPa WSW 7.9 km/h 17.7 km/h 81% 0.0 mm 163.00 W/m2
11:54 10.8 °C 7.7 °C 1013.1 hPa WSW 7.9 km/h 17.7 km/h 81% 0.0 mm 176.00 W/m2
11:59 10.8 °C 7.7 °C 1013.1 hPa West 13.0 km/h 17.7 km/h 81% 0.0 mm 176.00 W/m2
12:04 10.8 °C 7.7 °C 1013.1 hPa WSW 7.9 km/h 19.3 km/h 81% 0.0 mm 204.00 W/m2
12:09 10.8 °C 7.7 °C 1013.1 hPa SW 3.2 km/h 14.5 km/h 81% 0.0 mm 192.00 W/m2
12:14 10.8 °C 7.5 °C 1013.1 hPa West 20.9 km/h 20.9 km/h 80% 0.0 mm 128.00 W/m2
12:19 10.8 °C 7.3 °C 1013.1 hPa West 4.7 km/h 19.3 km/h 79% 0.0 mm 40.00 W/m2
12:24 10.7 °C 7.6 °C 1013.1 hPa NW 20.9 km/h 20.9 km/h 81% 0.0 mm 26.00 W/m2
12:29 10.2 °C 7.4 °C 1013.4 hPa West 16.3 km/h 25.7 km/h 83% 0.3 mm 16.00 W/m2
12:34 9.3 °C 6.6 °C 1013.4 hPa WSW 7.9 km/h 16.1 km/h 83% 1.5 mm 12.00 W/m2
12:39 8.5 °C 6.0 °C 1013.4 hPa WSW 17.7 km/h 17.7 km/h 84% 2.3 mm 33.00 W/m2
12:44 7.9 °C 5.5 °C 1013.4 hPa WSW 7.9 km/h 19.3 km/h 85% 2.3 mm 65.00 W/m2
12:49 7.9 °C 5.9 °C 1013.1 hPa SW 9.7 km/h 17.7 km/h 87% 2.3 mm 90.00 W/m2
12:54 8.1 °C 6.2 °C 1013.1 hPa SSW 13.0 km/h 17.7 km/h 88% 2.3 mm 86.00 W/m2
12:59 8.2 °C 6.3 °C 1013.1 hPa SW 6.4 km/h 16.1 km/h 88% 2.3 mm 69.00 W/m2
13:04 8.3 °C 6.4 °C 1013.1 hPa WSW 17.7 km/h 17.7 km/h 88% 2.3 mm 76.00 W/m2
13:09 8.4 °C 6.5 °C 1013.1 hPa WSW 9.7 km/h 11.3 km/h 88% 2.3 mm 42.00 W/m2
13:14 8.4 °C 6.5 °C 1013.4 hPa NNW 16.3 km/h 27.4 km/h 88% 2.3 mm 26.00 W/m2
13:19 8.2 °C 6.2 °C 1013.4 hPa NW 7.9 km/h 30.6 km/h 87% 2.3 mm 51.00 W/m2
13:24 8.0 °C 6.1 °C 1013.4 hPa NW 7.9 km/h 12.9 km/h 88% 2.3 mm 58.00 W/m2
13:29 7.9 °C 6.0 °C 1013.4 hPa WNW 6.4 km/h 19.3 km/h 88% 1.8 mm 56.00 W/m2
13:34 8.0 °C 6.3 °C 1013.4 hPa WNW 6.4 km/h 8.0 km/h 89% 0.5 mm 120.00 W/m2
13:39 8.1 °C 6.4 °C 1013.4 hPa WNW 6.4 km/h 14.5 km/h 89% 0.0 mm 121.00 W/m2
13:44 8.2 °C 6.7 °C 1013.4 hPa WNW 3.2 km/h 4.8 km/h 90% 0.3 mm 128.00 W/m2
13:49 8.2 °C 6.5 °C 1013.1 hPa NW 11.1 km/h 11.3 km/h 89% 0.3 mm 113.00 W/m2
13:54 8.2 °C 6.5 °C 1013.1 hPa WNW 1.4 km/h 11.3 km/h 89% 0.3 mm 88.00 W/m2
13:59 8.3 °C 6.6 °C 1013.1 hPa WNW 3.2 km/h 8.0 km/h 89% 0.3 mm 93.00 W/m2
14:04 8.3 °C 6.6 °C 1013.1 hPa WNW 1.4 km/h 4.8 km/h 89% 0.3 mm 100.00 W/m2
14:09 8.3 °C 6.6 °C 1013.1 hPa WNW 6.4 km/h 12.9 km/h 89% 0.3 mm 118.00 W/m2
14:14 8.4 °C 6.7 °C 1013.1 hPa NW 7.9 km/h 12.9 km/h 89% 0.3 mm 120.00 W/m2
14:19 8.4 °C 6.7 °C 1013.1 hPa NW 6.4 km/h 6.4 km/h 89% 0.3 mm 123.00 W/m2
14:24 8.5 °C 6.8 °C 1013.1 hPa WNW 9.7 km/h 11.3 km/h 89% 0.3 mm 137.00 W/m2
14:29 8.6 °C 6.7 °C 1013.1 hPa WNW 6.4 km/h 9.7 km/h 88% 0.3 mm 128.00 W/m2
14:34 8.7 °C 6.8 °C 1013.1 hPa NW 7.9 km/h 11.3 km/h 88% 0.3 mm 132.00 W/m2
14:39 8.7 °C 6.7 °C 1013.4 hPa WNW 13.0 km/h 16.1 km/h 87% 0.0 mm 134.00 W/m2
14:44 8.7 °C 6.7 °C 1013.4 hPa NW 13.0 km/h 14.5 km/h 87% 0.0 mm 125.00 W/m2
14:49 8.7 °C 6.5 °C 1013.4 hPa WNW 11.1 km/h 16.1 km/h 86% 0.0 mm 104.00 W/m2
14:54 8.8 °C 6.6 °C 1013.4 hPa NW 3.2 km/h 9.7 km/h 86% 0.0 mm 105.00 W/m2
14:59 8.8 °C 6.6 °C 1013.1 hPa NW 6.4 km/h 11.3 km/h 86% 0.0 mm 111.00 W/m2
15:04 8.8 °C 6.6 °C 1013.1 hPa WNW 7.9 km/h 16.1 km/h 86% 0.0 mm 120.00 W/m2
15:09 8.9 °C 6.5 °C 1013.1 hPa NW 7.9 km/h 17.7 km/h 85% 0.0 mm 120.00 W/m2
15:14 8.9 °C 6.2 °C 1013.1 hPa NW 16.3 km/h 20.9 km/h 83% 0.0 mm 125.00 W/m2
15:19 9.1 °C 6.4 °C 1013.4 hPa NW 9.7 km/h 16.1 km/h 83% 0.0 mm 125.00 W/m2
15:24 9.1 °C 6.4 °C 1013.4 hPa NW 6.4 km/h 20.9 km/h 83% 0.0 mm 139.00 W/m2
15:29 9.1 °C 6.2 °C 1013.4 hPa NNW 14.3 km/h 16.1 km/h 82% 0.0 mm 158.00 W/m2
15:34 9.3 °C 6.4 °C 1013.4 hPa WNW 19.5 km/h 20.9 km/h 82% 0.0 mm 195.00 W/m2
15:39 9.4 °C 6.1 °C 1013.4 hPa NW 13.0 km/h 17.7 km/h 80% 0.0 mm 156.00 W/m2
15:44 9.5 °C 6.0 °C 1013.4 hPa NW 11.1 km/h 22.5 km/h 79% 0.0 mm 190.00 W/m2
15:49 9.6 °C 5.8 °C 1013.4 hPa WNW 11.1 km/h 22.5 km/h 77% 0.0 mm 121.00 W/m2
15:54 9.6 °C 5.8 °C 1013.4 hPa NW 6.4 km/h 14.5 km/h 77% 0.0 mm 139.00 W/m2
15:59 9.6 °C 5.4 °C 1013.4 hPa NW 16.3 km/h 25.7 km/h 75% 0.0 mm 146.00 W/m2
16:04 9.6 °C 5.4 °C 1013.4 hPa NW 13.0 km/h 24.1 km/h 75% 0.0 mm 123.00 W/m2
16:09 9.5 °C 5.3 °C 1013.4 hPa NNW 6.4 km/h 17.7 km/h 75% 0.0 mm 91.00 W/m2
16:14 9.6 °C 5.2 °C 1013.4 hPa NW 14.3 km/h 20.9 km/h 74% 0.0 mm 74.00 W/m2
16:19 9.5 °C 5.1 °C 1013.4 hPa WNW 13.0 km/h 24.1 km/h 74% 0.0 mm 63.00 W/m2
16:24 9.4 °C 4.8 °C 1013.4 hPa NNW 13.0 km/h 22.5 km/h 73% 0.0 mm 53.00 W/m2
16:29 9.3 °C 4.7 °C 1013.4 hPa NNW 7.9 km/h 24.1 km/h 73% 0.0 mm 44.00 W/m2
16:34 9.3 °C 4.9 °C 1013.4 hPa WNW 6.4 km/h 16.1 km/h 74% 0.0 mm 37.00 W/m2
16:39 9.3 °C 4.7 °C 1013.4 hPa NNW 3.2 km/h 24.1 km/h 73% 0.0 mm 30.00 W/m2
16:44 9.2 °C 4.4 °C 1013.4 hPa NW 9.7 km/h 19.3 km/h 72% 0.0 mm 25.00 W/m2
16:49 9.2 °C 4.8 °C 1013.4 hPa NW 7.9 km/h 14.5 km/h 74% 0.0 mm 23.00 W/m2
16:54 9.1 °C 4.7 °C 1013.8 hPa NW 14.3 km/h 19.3 km/h 74% 0.0 mm 21.00 W/m2
16:59 8.9 °C 4.7 °C 1013.8 hPa WNW 11.1 km/h 11.3 km/h 75% 0.0 mm 18.00 W/m2
17:04 8.8 °C 4.6 °C 1013.8 hPa WNW 7.9 km/h 16.1 km/h 75% 0.0 mm 16.00 W/m2
17:09 8.7 °C 4.5 °C 1013.8 hPa NW 4.7 km/h 14.5 km/h 75% 0.0 mm 12.00 W/m2
17:14 8.7 °C 4.5 °C 1013.8 hPa NW 14.3 km/h 16.1 km/h 75% 0.0 mm 11.00 W/m2
17:19 8.6 °C 4.4 °C 1014.1 hPa NW 4.7 km/h 11.3 km/h 75% 0.0 mm 9.00 W/m2
17:24 8.4 °C 4.4 °C 1014.1 hPa West 6.4 km/h 11.3 km/h 76% 0.0 mm 5.00 W/m2
17:29 8.4 °C 4.6 °C 1014.1 hPa WNW 4.7 km/h 9.7 km/h 77% 0.0 mm 0.00 W/m2
17:34 8.3 °C 4.5 °C 1014.1 hPa WNW 6.4 km/h 14.5 km/h 77% 0.0 mm 0.00 W/m2
17:39 8.3 °C 4.7 °C 1014.1 hPa WNW 4.7 km/h 11.3 km/h 78% 0.0 mm 0.00 W/m2
17:44 8.2 °C 4.8 °C 1014.1 hPa West 6.4 km/h 12.9 km/h 79% 0.0 mm 0.00 W/m2
17:49 8.0 °C 4.6 °C 1014.1 hPa WNW 4.7 km/h 12.9 km/h 79% 0.0 mm 0.00 W/m2
17:54 7.9 °C 4.5 °C 1014.4 hPa NW 9.7 km/h 12.9 km/h 79% 0.0 mm 0.00 W/m2
17:59 7.8 °C 4.6 °C 1014.4 hPa WNW 4.7 km/h 8.0 km/h 80% 0.0 mm 0.00 W/m2
18:04 7.8 °C 4.6 °C 1014.4 hPa WNW 6.4 km/h 12.9 km/h 80% 0.0 mm 0.00 W/m2
18:09 7.8 °C 4.7 °C 1014.4 hPa WNW 3.2 km/h 6.4 km/h 81% 0.0 mm 0.00 W/m2
18:14 7.8 °C 4.9 °C 1014.4 hPa WNW 4.7 km/h 12.9 km/h 82% 0.0 mm 0.00 W/m2
18:19 7.7 °C 4.8 °C 1014.8 hPa WNW 1.4 km/h 4.8 km/h 82% 0.0 mm 0.00 W/m2
18:24 7.5 °C 4.6 °C 1014.8 hPa WNW 3.2 km/h 4.8 km/h 82% 0.0 mm 0.00 W/m2
18:29 7.3 °C 4.6 °C 1014.8 hPa West 3.2 km/h 6.4 km/h 83% 0.0 mm 0.00 W/m2
18:34 7.2 °C 4.7 °C 1014.8 hPa West 4.7 km/h 6.4 km/h 84% 0.0 mm 0.00 W/m2
18:39 7.1 °C 4.6 °C 1014.4 hPa West 6.4 km/h 9.7 km/h 84% 0.0 mm 0.00 W/m2
18:44 7.0 °C 4.5 °C 1014.4 hPa NW 4.7 km/h 14.5 km/h 84% 0.0 mm 0.00 W/m2
18:49 6.8 °C 4.1 °C 1014.8 hPa West 4.7 km/h 6.4 km/h 83% 0.0 mm 0.00 W/m2
18:54 6.8 °C 4.1 °C 1014.8 hPa WNW 4.7 km/h 9.7 km/h 83% 0.0 mm 0.00 W/m2
18:59 6.8 °C 3.9 °C 1014.8 hPa WNW 6.4 km/h 11.3 km/h 82% 0.0 mm 0.00 W/m2
19:04 6.8 °C 3.9 °C 1014.8 hPa WNW 7.9 km/h 16.1 km/h 82% 0.0 mm 0.00 W/m2
19:09 6.8 °C 3.9 °C 1014.8 hPa WNW 7.9 km/h 11.3 km/h 82% 0.0 mm 0.00 W/m2
19:14 6.8 °C 3.8 °C 1014.8 hPa WNW 6.4 km/h 11.3 km/h 81% 0.0 mm 0.00 W/m2
19:19 6.7 °C 3.7 °C 1014.8 hPa WNW 6.4 km/h 14.5 km/h 81% 0.0 mm 0.00 W/m2
19:24 6.7 °C 3.7 °C 1014.8 hPa NW 6.4 km/h 9.7 km/h 81% 0.0 mm 0.00 W/m2
19:29 6.7 °C 3.7 °C 1015.1 hPa West 4.7 km/h 12.9 km/h 81% 0.0 mm 0.00 W/m2
19:34 6.6 °C 3.6 °C 1015.1 hPa WNW 1.4 km/h 4.8 km/h 81% 0.0 mm 0.00 W/m2